QPF
0.00 0.00 0.00 0.00 0.00 0.00 0.00 0.00 0.00 0.00 0.00 0.00 0.00 0.00 0.00 0.00 0.00 0.00 0.00 0.00 0.00 0.00 0.00 0.00 0.00 0.00 0.00 0.00 0.00 0.00 0.00 0.00 0.00 0.00 0.00 0.00 0.00 0.00 0.00 0.00 0.00 0.00 0.00 0.00 0.00
0.00 0.00 0.00 0.00 0.00 0.00 0.00 0.00 0.00 0.00 0.00 0.00 0.00 0.00 0.00 0.00 0.00 0.00 0.00 0.00 0.00 0.00 0.00 0.00 0.00 0.00 0.00 0.00 0.00 0.00 0.00 0.00 0.00 0.00 0.00 0.00 0.00 0.00 0.00 0.00 0.00 0.00 0.00 0.00 0.00
0.00 0.00 0.00 0.00 0.00 0.00 0.00 0.00 0.00 0.00 0.00 0.00 0.00 0.00 0.00 0.00 0.00 0.00 0.00 0.00 0.00 0.00 0.00 0.00 0.00 0.00 0.00 0.00 0.00 0.00 0.00 0.00 0.00 0.00 0.00 0.00 0.00 0.00 0.00 0.00 0.00 0.00 0.00 0.00 0.00
0.00 0.00 0.00 0.00 0.00 0.00 0.00 0.00 0.00 0.00 0.00 0.00 0.00 0.00 0.00 0.00 0.00 0.00 0.00 0.00 0.00 0.00 0.00 0.00 0.00 0.00 0.00 0.00 0.00 0.00 0.00 0.00 0.00 0.00 0.00 0.00 0.00 0.00 0.00 0.00 0.00 0.00 0.00 0.00 0.00
0.00 0.00 0.00 0.00 0.00 0.00 0.00 0.00 0.00 0.00 0.00 0.00 0.00 0.00 0.00 0.00 0.00 0.00 0.00 0.00 0.00 0.00 0.00 0.00 0.00 0.00 0.00 0.00 0.00 0.00 0.00 0.00 0.00 0.00 0.00 0.00 0.00 0.00 0.00 0.00 0.00 0.00 0.00 0.00 0.00
0.00 0.00 0.00 0.00 0.00 0.00 0.00 0.00 0.00 0.00 0.00 0.00 0.00 0.00 0.00 0.00 0.00 0.00 0.00 0.00 0.00 0.00 0.00 0.00 0.00 0.00 0.00 0.00 0.00 0.00 0.00 0.00 0.00 0.00 0.00 0.00 0.00 0.00 0.00 0.00 0.00 0.00 0.00 0.00 0.00
0.00 0.00 0.00 0.00 0.00 0.00 0.00 0.00 0.00 0.00 0.00 0.00 0.00 0.00 0.00 0.00 0.00 0.00 0.00 0.00 0.00 0.00 0.00 0.00 0.00 0.00 0.00 0.00 0.00 0.00 0.00 0.00 0.00 0.00 0.00 0.00 0.00 0.00 0.00 0.00 0.00 0.00 0.00 0.00 0.00
0.00 0.00 0.00 0.00 0.00 0.00 0.00 0.00 0.00 0.00 0.00 0.00 0.00 0.00 0.00 0.00 0.00 0.00 0.00 0.00 0.00 0.00 0.00 0.00 0.00 0.00 0.00 0.00 0.00 0.00 0.00 0.00 0.00 0.00 0.00 0.00 0.00 0.00 0.00 0.00 0.00 0.00 0.00 0.00 0.00
0.00 0.00 0.00 0.00 0.00 0.00 0.00 0.00 0.00 0.00 0.00 0.00 0.00 0.00 0.00 0.00 0.00 0.00 0.00 0.00 0.00 0.00 0.00 0.00 0.00 0.00 0.00 0.00 0.00 0.00 0.00 0.00 0.00 0.00 0.00 0.00 0.00 0.00 0.00 0.00 0.00 0.00 0.00 0.00 0.00
0.00 0.00 0.00 0.00 0.00 0.00 0.00 0.00 0.00 0.00 0.00 0.00 0.00 0.00 0.00 0.00 0.00 0.00 0.00 0.00 0.00 0.00 0.00 0.00 0.00 0.00 0.00 0.00 0.00 0.00 0.00 0.00 0.00 0.00 0.00 0.00 0.00 0.00 0.00 0.00 0.00 0.00 0.00 0.00 0.00
0.00 0.00 0.00 0.00 0.00 0.00 0.00 0.00 0.00 0.00 0.00 0.00 0.00 0.00 0.00 0.00 0.00 0.00 0.00 0.00 0.00 0.00 0.00 0.00 0.00 0.00 0.00 0.00 0.00 0.00 0.00 0.00 0.00 0.00 0.00 0.00 0.00 0.00 0.00 0.00 0.00 0.00 0.00 0.00 0.00
0.00 0.00 0.00 0.00 0.00 0.00 0.00 0.00 0.00 0.00 0.00 0.00 0.00 0.00 0.00 0.00 0.00 0.00 0.00 0.00 0.00 0.00 0.00 0.00 0.00 0.00 0.00 0.00 0.00 0.00 0.00 0.00 0.00 0.00 0.00 0.00 0.00 0.00 0.00 0.00 0.00 0.00 0.00 0.00 0.00
0.00 0.00 0.00 0.00 0.00 0.00 0.00 0.00 0.00 0.00 0.00 0.00 0.00 0.00 0.00 0.00 0.00 0.00 0.00 0.00 0.00 0.00 0.00 0.00 0.00 0.00 0.00 0.00 0.00 0.00 0.00 0.00 0.00 0.00 0.00 0.00 0.00 0.00 0.00 0.00 0.00 0.00 0.00 0.00 0.00
0.00 0.00 0.00 0.00 0.00 0.00 0.00 0.00 0.00 0.00 0.00 0.00 0.00 0.00 0.00 0.00 0.00 0.00 0.00 0.00 0.00 0.00 0.00 0.00 0.00 0.00 0.00 0.00 0.00 0.00 0.00 0.00 0.00 0.00 0.00 0.00 0.00 0.00 0.00 0.00 0.00 0.00 0.00 0.00 0.00
0.00 0.00 0.00 0.00 0.00 0.00 0.00 0.00 0.00 0.00 0.00 0.00 0.00 0.00 0.00 0.00 0.00 0.00 0.00 0.00 0.00 0.00 0.00 0.00 0.00 0.00 0.00 0.00 0.00 0.00 0.00 0.00 0.00 0.00 0.00 0.00 0.00 0.00 0.00 0.00 0.00 0.00 0.00 0.00 0.00
0.00 0.00 0.00 0.00 0.00 0.00 0.00 0.00 0.00 0.00 0.00 0.00 0.00 0.00 0.00 0.00 0.00 0.00 0.00 0.00 0.00 0.00 0.00 0.00 0.00 0.00 0.00 0.00 0.00 0.00 0.00 0.00 0.00 0.00 0.00 0.00 0.00 0.00 0.00 0.00 0.00 0.00 0.00 0.00 0.00
0.00 0.00 0.00 0.00 0.00 0.00 0.00 0.00 0.00 0.00 0.00 0.00 0.00 0.00 0.00 0.00 0.00 0.00 0.00 0.00 0.00 0.00 0.00 0.00 0.00 0.00 0.00 0.00 0.00 0.00 0.00 0.00 0.00 0.00 0.00 0.00 0.00 0.00 0.00 0.00 0.00 0.00 0.00 0.00 0.00
0.00 0.00 0.00 0.00 0.00 0.00 0.00 0.00 0.00 0.00 0.00 0.00 0.00 0.00 0.00 0.00 0.00 0.00 0.00 0.00 0.00 0.00 0.00 0.00 0.00 0.00 0.00 0.00 0.00 0.00 0.00 0.00 0.00 0.00 0.00 0.00 0.00 0.00 0.00 0.00 0.00 0.00 0.00 0.00 0.00
0.00 0.00 0.00 0.00 0.00 0.00 0.00 0.00 0.00 0.00 0.00 0.00 0.00 0.00 0.00 0.00 0.00 0.00 0.00 0.00 0.00 0.00 0.00 0.00 0.00 0.00 0.00 0.00 0.00 0.00 0.00 0.00 0.00 0.00 0.00 0.00 0.00 0.00 0.00 0.00 0.00 0.00 0.00 0.00 0.00
0.00 0.00 0.00 0.00 0.00 0.00 0.00 0.00 0.00 0.00 0.00 0.00 0.00 0.00 0.00 0.00 0.00 0.00 0.00 0.00 0.00 0.00 0.00 0.00 0.00 0.00 0.00 0.00 0.01 0.00 0.00 0.00 0.00 0.01 0.00 0.00 0.00 0.00 0.00 0.00 0.00 0.00 0.00 0.00 0.00
0.00 0.00 0.00 0.00 0.00 0.00 0.00 0.00 0.00 0.00 0.00 0.00 0.00 0.00 0.00 0.00 0.00 0.00 0.00 0.00 0.00 0.00 0.00 0.00 0.00 0.00 0.00 0.01 0.01 0.00 0.02 0.01 0.01 0.00 0.00 0.00 0.00 0.00 0.00 0.00 0.00 0.00 0.00 0.00 0.00
0.00 0.00 0.00 0.00 0.00 0.00 0.00 0.00 0.00 0.00 0.00 0.00 0.00 0.00 0.00 0.00 0.00 0.00 0.00 0.00 0.00 0.00 0.00 0.00 0.00 0.00 0.00 0.00 0.00 0.00 0.01 0.02 0.05 0.02 0.00 0.00 0.00 0.00 0.00 0.00 0.00 0.00 0.00 0.00 0.00
0.00 0.00 0.00 0.00 0.00 0.00 0.00 0.00 0.00 0.00 0.00 0.00 0.00 0.00 0.00 0.00 0.00 0.00 0.00 0.00 0.00 0.00 0.01 0.01 0.01 0.02 0.00 0.00 0.03 0.01 0.00 0.01 0.00 0.01 0.02 0.03 0.01 0.00 0.00 0.00 0.00 0.00 0.00 0.00 0.00
0.00 0.00 0.00 0.00 0.00 0.00 0.00 0.00 0.00 0.00 0.00 0.00 0.00 0.00 0.02 0.03 0.03 0.02 0.01 0.01 0.00 0.00 0.00 0.02 0.01 0.02 0.01 0.01 0.01 0.00 0.00 0.00 0.00 0.00 0.00 0.01 0.01 0.00 0.00 0.00 0.00 0.00 0.00 0.00 0.00
0.00 0.00 0.00 0.00 0.00 0.00 0.00 0.00 0.00 0.00 0.00 0.00 0.01 0.03 0.04 0.04 0.03 0.04 0.04 0.02 0.00 0.00 0.00 0.02 0.03 0.01 0.00 0.00 0.00 0.00 0.00 0.00 0.00 0.00 0.00 0.00 0.00 0.00 0.00 0.00 0.00 0.00 0.00 0.00 0.00
0.00 0.00 0.00 0.00 0.00 0.00 0.00 0.00 0.00 0.00 0.00 0.01 0.01 0.01 0.03 0.04 0.03 0.01 0.01 0.02 0.05 0.05 0.02 0.01 0.04 0.01 0.00 0.00 0.00 0.00 0.00 0.00 0.00 0.00 0.00 0.00 0.00 0.00 0.00 0.00 0.00 0.00 0.00 0.00 0.00
0.00 0.00 0.00 0.00 0.00 0.00 0.00 0.00 0.00 0.00 0.00 0.00 0.01 0.01 0.01 0.01 0.00 0.00 0.00 0.00 0.01 0.03 0.06 0.06 0.05 0.04 0.02 0.00 0.00 0.00 0.00 0.00 0.00 0.00 0.00 0.00 0.00 0.00 0.00 0.00 0.00 0.00 0.00 0.00 0.00
MSLP
1020.31 1020.07 1019.84 1019.64 1019.41 1019.18 1018.89 1018.56 1018.18 1017.77 1017.30 1016.87 1016.47 1015.98 1015.36 1014.72 1013.80 1011.96 1010.66 1009.98 1009.93 1010.39 1010.42 1009.12 1008.55 1008.07 1007.70 1006.75 1005.99 1005.32 1004.13 1001.62 1000.62 999.93 999.14 999.40 1000.10 1000.66 1000.71 1000.40 1001.20 1001.70 1001.43 1001.13 1002.28
1020.30 1019.99 1019.74 1019.50 1019.18 1018.95 1018.72 1018.47 1018.15 1017.69 1017.15 1016.64 1016.32 1015.81 1015.16 1014.60 1013.08 1010.40 1009.69 1009.77 1010.16 1010.44 1009.78 1008.43 1007.52 1007.19 1006.35 1005.75 1005.32 1004.64 1002.96 1001.54 1000.82 999.89 999.34 999.73 1000.54 1000.49 1001.20 1001.27 1001.00 1001.56 1001.78 1001.92 1002.39
1020.45 1020.08 1019.64 1019.35 1019.08 1018.76 1018.46 1018.18 1017.80 1017.41 1016.91 1016.38 1015.99 1015.63 1015.09 1014.57 1011.63 1008.50 1009.93 1010.15 1010.15 1010.15 1009.35 1007.77 1007.20 1006.39 1005.76 1004.94 1004.30 1003.90 1002.44 1001.91 1000.82 1000.57 1000.54 1000.17 1000.16 1001.03 1000.59 1000.44 1000.56 1000.61 1000.83 1001.15 1001.57
1020.47 1020.20 1019.84 1019.41 1018.91 1018.62 1018.28 1017.84 1017.44 1017.11 1016.63 1016.22 1015.87 1015.55 1014.93 1013.76 1010.16 1008.95 1010.12 1010.21 1010.24 1009.59 1008.74 1007.65 1006.82 1006.15 1005.27 1004.30 1003.78 1003.03 1002.68 1002.53 1001.91 1001.33 1001.48 1001.42 1001.31 1000.67 1000.60 1000.65 1000.73 1000.49 1000.45 1000.79 1001.31
1020.22 1020.03 1019.75 1019.32 1018.90 1018.42 1018.05 1017.62 1017.27 1016.60 1016.24 1015.95 1015.66 1015.43 1014.94 1011.84 1009.09 1009.07 1009.72 1009.82 1009.43 1009.00 1008.19 1007.27 1006.53 1005.64 1004.64 1004.11 1003.66 1002.68 1002.62 1002.34 1002.23 1002.30 1002.08 1001.94 1001.36 1001.02 1000.38 1000.52 1000.77 1001.00 1001.03 1001.11 1001.44
1020.18 1019.91 1019.59 1019.17 1018.64 1018.25 1017.75 1017.20 1016.57 1016.19 1015.91 1015.62 1015.39 1015.17 1013.94 1010.54 1008.51 1008.91 1009.29 1009.12 1008.61 1008.02 1007.54 1007.06 1006.15 1005.53 1004.68 1003.76 1003.29 1002.89 1002.37 1002.04 1002.08 1001.98 1001.91 1002.06 1001.32 1001.17 1000.34 1000.57 1000.58 1000.78 1000.89 1001.05 1001.21
1020.12 1019.75 1019.35 1018.88 1018.42 1017.94 1017.40 1016.73 1016.19 1015.81 1015.52 1015.09 1014.88 1014.47 1012.43 1009.59 1008.67 1008.76 1008.87 1008.82 1008.51 1008.12 1007.36 1006.68 1006.28 1005.83 1005.10 1004.63 1003.80 1003.33 1002.62 1002.02 1001.48 1001.42 1001.02 1001.48 1000.33 999.73 999.98 999.79 999.71 999.98 1000.43 1000.68 1000.77
1019.92 1019.53 1019.16 1018.64 1018.17 1017.54 1016.84 1016.06 1015.66 1015.29 1014.94 1014.70 1014.41 1013.43 1010.83 1009.39 1009.33 1008.81 1008.49 1008.02 1007.86 1008.07 1007.75 1007.31 1006.66 1005.91 1005.33 1005.09 1004.05 1003.51 1002.66 1001.26 1000.67 1000.70 1000.23 1000.66 998.00 998.60 998.36 998.27 998.64 999.14 999.44 1000.09 1000.38
1019.81 1019.41 1018.97 1018.43 1017.78 1016.98 1016.14 1015.41 1015.14 1014.82 1014.79 1014.66 1013.88 1012.63 1009.77 1009.90 1008.96 1008.80 1008.95 1008.52 1007.79 1007.54 1007.26 1007.28 1006.83 1006.24 1005.84 1005.01 1004.10 1003.12 1001.81 1000.80 999.84 999.53 999.11 999.21 997.86 998.12 997.72 997.88 998.39 998.49 999.19 999.38 999.58
1019.73 1019.47 1019.08 1018.47 1017.74 1016.86 1015.91 1015.04 1015.07 1014.85 1014.33 1013.35 1012.37 1012.02 1010.14 1009.97 1009.40 1009.03 1008.06 1008.06 1007.60 1006.98 1006.70 1006.86 1006.35 1005.44 1005.05 1004.33 1002.10 1002.33 1001.59 1000.79 999.98 999.84 999.08 999.30 997.97 997.88 997.41 997.88 998.22 998.53 998.64 998.97 999.28
1019.80 1019.59 1019.11 1018.52 1017.84 1016.94 1015.66 1013.28 1014.11 1013.79 1012.56 1012.37 1011.87 1011.21 1010.12 1010.21 1009.22 1008.01 1008.21 1007.50 1006.96 1006.58 1005.70 1005.05 1005.21 1003.92 1003.47 1003.27 1003.04 1002.68 1002.02 1001.10 1000.23 999.78 999.72 999.11 998.24 997.84 997.28 997.02 997.91 998.08 998.16 998.50 998.57
1019.61 1019.52 1018.98 1018.56 1018.28 1017.06 1015.64 1014.78 1015.91 1016.44 1013.75 1012.54 1011.91 1011.20 1010.36 1010.75 1009.11 1007.94 1007.74 1006.90 1006.37 1005.76 1005.16 1004.65 1003.15 1003.59 1003.32 1002.88 1002.59 1002.31 1002.02 1001.19 1001.03 1000.60 1000.91 1000.53 999.38 998.55 997.61 996.84 997.24 997.62 997.71 998.07 998.19
1019.43 1019.30 1019.32 1018.79 1018.18 1017.26 1016.44 1016.58 1016.46 1016.25 1013.93 1011.91 1011.33 1010.77 1010.37 1010.06 1009.19 1008.26 1007.76 1007.05 1006.19 1005.51 1004.78 1003.85 1002.83 1002.71 1002.86 1002.54 1002.30 1002.05 1001.82 1001.74 1001.68 1001.48 1001.43 1001.00 999.60 999.08 998.12 997.10 996.89 997.14 997.45 997.52 998.11
1019.45 1019.33 1019.06 1018.39 1018.64 1016.69 1016.21 1016.73 1016.46 1016.24 1012.89 1011.32 1010.69 1010.76 1010.43 1009.49 1008.75 1008.47 1007.91 1007.40 1006.49 1005.53 1005.04 1003.99 1003.09 1002.54 1002.23 1002.30 1002.48 1001.87 1002.36 1002.41 1002.46 1002.35 1001.52 1001.62 998.57 997.77 996.85 995.82 996.19 996.42 997.36 998.02 998.87
1019.48 1019.16 1018.80 1018.41 1017.06 1015.70 1016.68 1016.61 1016.23 1015.73 1012.19 1011.40 1010.69 1011.26 1010.70 1010.45 1009.99 1008.27 1008.43 1007.39 1006.59 1005.89 1005.65 1004.12 1003.42 1002.86 1002.40 1002.24 1002.56 1001.96 1002.82 1003.01 1003.03 1002.89 1002.30 1000.85 999.32 996.83 995.93 996.16 996.64 996.82 997.59 998.34 999.29
1019.28 1019.07 1018.61 1017.70 1016.90 1016.79 1016.71 1016.47 1015.91 1013.74 1011.53 1011.63 1011.44 1011.30 1010.88 1010.28 1010.21 1009.21 1008.58 1007.68 1006.56 1005.98 1005.44 1004.30 1003.81 1003.13 1002.40 1002.77 1002.86 1003.30 1003.75 1003.62 1004.18 1004.00 1002.51 1000.33 999.30 996.57 995.86 995.84 996.21 997.39 998.26 999.04 999.72
1019.30 1019.24 1018.33 1017.13 1016.77 1016.90 1016.70 1015.35 1013.61 1011.64 1012.09 1012.17 1012.11 1012.02 1011.61 1010.94 1010.38 1009.77 1008.86 1007.48 1006.50 1006.07 1005.29 1003.96 1002.68 1002.35 1001.92 1002.51 1003.17 1003.68 1004.38 1004.66 1004.30 1003.61 1000.64 1000.16 998.72 996.81 995.91 995.12 995.86 997.43 999.19 999.83 1000.06
1019.21 1018.99 1018.24 1017.22 1017.29 1016.96 1015.47 1013.94 1012.44 1012.84 1012.99 1013.31 1013.03 1012.48 1011.74 1011.86 1011.10 1010.42 1009.31 1007.90 1007.19 1006.71 1006.30 1005.19 1003.66 1002.79 1003.41 1003.13 1002.89 1003.05 1003.84 1004.43 1003.40 1002.02 1000.39 999.59 997.90 996.61 996.50 996.94 997.23 998.19 999.46 1000.06 1000.25
1019.26 1017.90 1017.15 1017.43 1017.32 1016.50 1014.56 1012.68 1013.49 1014.08 1014.71 1014.47 1013.58 1012.31 1011.73 1011.83 1011.71 1010.86 1009.88 1009.05 1008.22 1007.99 1007.66 1006.80 1005.12 1003.85 1004.64 1004.88 1004.72 1003.98 1004.32 1004.22 1004.16 1003.25 1002.07 999.54 998.08 998.05 997.75 998.04 998.67 999.06 999.60 1000.30 1000.62
1018.08 1017.37 1017.24 1017.44 1017.06 1016.04 1013.87 1014.38 1014.67 1015.48 1015.71 1015.33 1014.17 1013.66 1013.02 1012.65 1012.35 1011.57 1010.82 1009.99 1009.57 1009.53 1009.22 1008.61 1006.97 1005.68 1004.97 1005.59 1005.48 1006.26 1005.23 1005.25 1005.46 1004.00 1002.28 999.90 998.27 997.57 998.05 998.46 998.75 999.37 1000.02 1000.62 1000.60
1018.24 1016.67 1017.31 1017.34 1016.65 1015.03 1014.23 1015.09 1015.83 1016.34 1016.64 1016.05 1015.12 1014.70 1014.22 1013.63 1012.86 1012.22 1011.56 1011.00 1010.32 1010.25 1010.27 1009.37 1008.23 1006.88 1005.78 1005.51 1005.50 1006.66 1006.28 1005.20 1005.37 1004.82 1002.38 1000.47 998.83 998.25 998.15 998.62 999.11 999.95 1000.49 1000.58 1000.60
1017.77 1016.90 1017.66 1017.32 1015.85 1015.06 1015.11 1016.26 1017.62 1016.71 1016.79 1016.46 1016.27 1015.55 1014.85 1014.30 1013.56 1012.90 1012.07 1011.28 1011.20 1011.21 1010.49 1009.79 1009.30 1007.38 1006.24 1005.30 1006.10 1006.75 1006.52 1007.22 1006.05 1004.55 1003.52 1001.66 1000.22 999.04 998.05 999.34 999.61 1000.04 1000.41 1000.52 1000.60
1017.19 1016.94 1017.38 1017.10 1015.75 1015.53 1016.79 1017.09 1017.31 1017.02 1016.71 1016.51 1016.43 1016.06 1015.63 1014.98 1014.22 1013.22 1012.43 1011.98 1011.94 1011.61 1010.99 1011.21 1009.39 1008.16 1006.38 1005.21 1006.29 1007.14 1007.66 1007.49 1007.32 1006.82 1004.92 1002.73 1001.74 1000.91 1000.33 999.66 999.30 999.67 1000.13 1000.35 1000.53
1017.56 1017.02 1016.87 1016.37 1016.25 1016.28 1017.23 1017.35 1017.29 1017.66 1017.37 1017.27 1016.88 1016.43 1015.81 1015.23 1014.45 1013.77 1012.83 1012.32 1012.40 1011.83 1011.67 1011.86 1010.74 1009.28 1007.75 1006.29 1008.01 1007.48 1007.89 1007.66 1007.10 1006.20 1004.41 1003.52 1002.11 1001.98 1001.92 999.86 999.39 999.74 1000.09 1000.39 1000.36
1018.15 1017.07 1016.79 1016.68 1016.74 1017.00 1017.45 1017.64 1017.65 1017.49 1017.67 1017.34 1016.58 1016.65 1016.55 1015.73 1014.72 1014.02 1013.89 1012.95 1011.90 1011.13 1010.81 1011.24 1010.51 1009.72 1008.60 1007.12 1006.51 1006.09 1006.20 1006.42 1006.47 1006.14 1004.90 1002.28 1001.53 1002.06 1000.61 1000.02 1000.01 1000.18 1000.32 1000.38 1000.30
1018.11 1016.97 1017.09 1016.75 1017.29 1017.46 1017.95 1017.59 1017.68 1017.60 1017.99 1017.63 1017.40 1017.10 1016.58 1015.75 1015.64 1014.78 1014.07 1013.35 1012.67 1011.68 1010.84 1010.52 1010.59 1009.88 1008.78 1007.78 1006.67 1005.53 1005.18 1005.23 1005.06 1005.08 1004.33 1002.98 1001.35 1000.69 1000.25 999.95 1000.03 1000.29 1000.47 1000.59 1000.61
1018.09 1017.82 1016.81 1017.41 1017.36 1017.44 1017.35 1017.89 1018.09 1018.57 1017.80 1017.67 1017.54 1016.99 1015.91 1015.24 1015.24 1014.41 1013.82 1013.05 1012.48 1012.03 1011.57 1011.38 1010.79 1010.08 1008.90 1007.93 1006.82 1005.42 1004.32 1004.00 1003.89 1003.65 1003.81 1002.71 1002.00 1001.04 1000.84 1000.56 1000.75 1000.97 1001.08 1000.98 1000.82
Thickness
5626 5628 5629 5630 5632 5634 5637 5640 5643 5646 5649 5652 5654 5658 5663 5668 5676 5693 5699 5706 5706 5701 5702 5710 5711 5712 5715 5714 5723 5727 5703 5715 5731 5738 5751 5770 5745 5756 5762 5757 5752 5755 5758 5767 5765
5619 5622 5623 5625 5627 5629 5631 5633 5634 5638 5642 5646 5647 5651 5655 5660 5673 5691 5698 5697 5693 5692 5696 5701 5702 5705 5705 5710 5713 5707 5707 5718 5742 5750 5749 5752 5739 5747 5735 5734 5737 5740 5753 5759 5758
5609 5612 5616 5618 5620 5623 5625 5626 5629 5631 5634 5637 5639 5641 5645 5648 5672 5694 5685 5683 5683 5683 5689 5700 5701 5703 5696 5708 5709 5706 5703 5722 5733 5739 5737 5739 5739 5740 5732 5728 5736 5736 5744 5751 5750
5601 5603 5607 5610 5614 5615 5617 5619 5622 5622 5625 5628 5630 5630 5634 5643 5658 5680 5670 5669 5670 5675 5681 5684 5688 5683 5686 5690 5705 5695 5707 5707 5715 5723 5714 5715 5725 5724 5730 5728 5740 5745 5748 5745 5741
5594 5595 5597 5600 5603 5606 5609 5611 5612 5615 5617 5618 5618 5618 5624 5642 5655 5664 5658 5657 5662 5667 5667 5671 5671 5677 5677 5687 5691 5691 5696 5704 5704 5702 5702 5710 5708 5712 5721 5732 5735 5734 5734 5732 5732
5585 5587 5589 5593 5596 5597 5600 5603 5606 5607 5608 5609 5609 5609 5618 5629 5656 5653 5648 5649 5652 5656 5659 5662 5664 5671 5672 5679 5678 5689 5692 5694 5696 5695 5698 5686 5700 5704 5716 5722 5721 5722 5723 5725 5724
5576 5578 5581 5584 5586 5588 5591 5594 5597 5598 5598 5600 5599 5602 5612 5627 5642 5642 5641 5638 5641 5640 5642 5653 5658 5654 5660 5654 5672 5671 5665 5678 5687 5690 5690 5690 5691 5698 5713 5720 5716 5716 5716 5717 5720
5565 5568 5571 5574 5576 5578 5581 5585 5587 5589 5590 5591 5592 5597 5608 5626 5626 5628 5631 5632 5636 5633 5632 5637 5643 5644 5645 5651 5652 5649 5656 5655 5683 5684 5692 5680 5689 5706 5720 5717 5713 5714 5714 5712 5712
5554 5557 5560 5563 5566 5570 5575 5577 5578 5580 5579 5579 5585 5589 5604 5612 5614 5617 5616 5611 5619 5622 5625 5625 5626 5625 5628 5623 5626 5640 5633 5650 5669 5687 5687 5676 5687 5700 5712 5705 5702 5708 5704 5708 5710
5543 5545 5546 5550 5556 5561 5566 5570 5566 5569 5573 5578 5585 5580 5596 5588 5598 5602 5612 5607 5605 5610 5611 5607 5610 5612 5613 5612 5621 5622 5629 5642 5648 5666 5668 5657 5676 5687 5699 5695 5691 5695 5698 5700 5700
5530 5531 5535 5540 5544 5548 5556 5576 5574 5571 5575 5571 5574 5574 5583 5584 5592 5597 5596 5596 5600 5600 5597 5610 5600 5603 5612 5616 5622 5619 5618 5623 5646 5655 5641 5649 5659 5672 5687 5691 5681 5687 5692 5692 5696
5521 5520 5525 5528 5528 5536 5547 5551 5540 5532 5556 5563 5564 5566 5573 5566 5571 5583 5589 5586 5587 5585 5596 5595 5602 5604 5610 5613 5611 5612 5606 5616 5627 5632 5616 5621 5631 5654 5669 5680 5676 5681 5684 5686 5691
5511 5512 5510 5516 5519 5526 5530 5529 5527 5526 5547 5561 5560 5559 5558 5561 5558 5566 5577 5577 5578 5579 5584 5586 5601 5605 5598 5600 5598 5601 5599 5604 5601 5608 5605 5609 5617 5630 5650 5666 5675 5676 5680 5684 5681
5500 5501 5504 5510 5511 5523 5526 5519 5519 5518 5557 5555 5555 5549 5549 5555 5553 5563 5567 5564 5567 5568 5573 5580 5593 5592 5592 5586 5589 5586 5599 5592 5586 5580 5580 5602 5602 5631 5648 5658 5660 5669 5666 5666 5665
5488 5492 5496 5499 5512 5525 5513 5511 5513 5516 5557 5543 5544 5540 5540 5535 5536 5549 5552 5553 5549 5554 5556 5567 5573 5573 5574 5579 5581 5586 5585 5577 5575 5569 5577 5592 5597 5632 5652 5636 5638 5650 5653 5654 5652
5481 5484 5488 5496 5502 5504 5504 5505 5509 5537 5541 5530 5526 5521 5523 5527 5522 5530 5533 5542 5548 5544 5549 5557 5568 5567 5570 5570 5570 5573 5564 5565 5557 5553 5547 5591 5594 5622 5634 5637 5640 5636 5638 5638 5641
5472 5474 5482 5489 5497 5493 5494 5508 5533 5543 5531 5518 5510 5508 5508 5509 5511 5513 5516 5525 5526 5519 5528 5550 5562 5567 5572 5556 5560 5555 5542 5525 5526 5531 5563 5592 5590 5609 5637 5647 5643 5625 5616 5623 5628
5466 5468 5474 5482 5481 5484 5500 5517 5526 5518 5510 5502 5498 5498 5499 5495 5497 5498 5503 5509 5517 5512 5509 5513 5528 5549 5544 5547 5549 5552 5544 5526 5526 5551 5573 5591 5582 5607 5627 5624 5621 5613 5612 5614 5617
5457 5470 5476 5473 5475 5483 5504 5525 5508 5496 5484 5481 5489 5495 5495 5489 5483 5484 5487 5488 5494 5493 5485 5486 5506 5536 5524 5525 5530 5539 5527 5549 5536 5550 5545 5579 5597 5595 5601 5600 5601 5601 5601 5599 5604
5463 5469 5468 5467 5471 5481 5505 5488 5489 5476 5469 5470 5474 5478 5472 5471 5466 5468 5468 5475 5471 5468 5469 5468 5474 5504 5520 5512 5517 5505 5531 5515 5512 5517 5529 5570 5585 5586 5585 5585 5593 5589 5587 5590 5594
5454 5473 5461 5461 5468 5488 5493 5482 5469 5461 5454 5454 5460 5455 5455 5452 5455 5453 5452 5455 5458 5452 5451 5459 5466 5480 5502 5505 5505 5496 5503 5524 5521 5521 5543 5556 5572 5591 5587 5583 5580 5575 5576 5580 5584
5453 5458 5452 5455 5475 5482 5482 5463 5433 5451 5446 5442 5437 5437 5438 5438 5437 5435 5437 5442 5442 5436 5440 5452 5448 5466 5483 5507 5498 5493 5499 5478 5505 5531 5538 5555 5564 5578 5587 5573 5573 5567 5567 5571 5576
5451 5456 5449 5451 5462 5466 5450 5446 5440 5440 5438 5432 5424 5424 5424 5419 5413 5422 5427 5430 5426 5428 5433 5431 5451 5449 5477 5504 5489 5478 5474 5480 5478 5480 5499 5533 5539 5558 5559 5567 5571 5563 5561 5566 5569
5441 5440 5450 5453 5457 5453 5434 5433 5431 5425 5420 5415 5412 5412 5407 5404 5415 5408 5420 5425 5421 5424 5424 5422 5433 5447 5458 5479 5443 5467 5455 5469 5477 5485 5510 5512 5526 5527 5525 5553 5557 5555 5557 5558 5561
5427 5440 5446 5437 5440 5439 5433 5426 5417 5414 5410 5408 5407 5395 5387 5387 5403 5405 5401 5410 5425 5431 5432 5427 5426 5441 5454 5471 5475 5477 5477 5475 5471 5479 5490 5527 5530 5515 5537 5544 5543 5545 5548 5548 5551
5417 5436 5437 5439 5430 5428 5407 5420 5413 5408 5394 5389 5383 5383 5388 5389 5383 5382 5398 5402 5404 5420 5429 5437 5416 5438 5444 5458 5466 5471 5478 5479 5484 5484 5491 5504 5519 5539 5543 5542 5537 5538 5539 5540 5542
5421 5423 5435 5418 5424 5423 5422 5408 5399 5385 5393 5387 5375 5378 5392 5400 5397 5402 5404 5410 5414 5414 5415 5418 5425 5431 5433 5453 5457 5460 5479 5485 5487 5492 5488 5494 5510 5527 5520 5525 5527 5527 5529 5532 5536